Weather History for Hickory, NC

Change the Weather History Date:

Tuesday, February 14, 2012

  Actual Average Record
Temperature  
Mean Temperature 44 °F -  
Max Temperature 48 °F 53 °F 76 °F (1949)
Min Temperature 39 °F 31 °F 15 °F (1988)
Degree Days  
Heating Degree Days 22    
Moisture  
Dew Point 31 °F    
Average Humidity 62    
Maximum Humidity 89    
Minimum Humidity 37    
Precipitation  
Precipitation 0.00 in - - ()
Sea Level Pressure  
Sea Level Pressure 30.02 in    
Wind  
Wind Speed 7 mph (SSW)    
Max Wind Speed 16 mph    
Max Gust Speed 22 mph    
Visibility 10 miles    
Events      
Averages and records for this station are not official NWS values.
T = Trace of Precipitation, MM = Missing Value Source: NWS Daily Summary

Daily Weather History Graph

Daily Weather History Graph

Search for Another Location

Airport:

Trip Planner

Search our weather history database for the weather conditions in past years. The results will help you decide how hot, cold, wet, or windy it might be!

Date:

Astronomy

Feb. 14, 2012 Rise Set
Actual Time 7:14 AM EST 6:05 PM EST
Civil Twilight 6:47 AM EST 6:32 PM EST
Nautical Twilight 6:17 AM EST 7:02 PM EST
Astronomical Twilight 5:48 AM EST 7:31 PM EST
Moon 12:53 AM EST (2/14) 11:15 AM EST (2/14)
Length of Visible Light 11h 44m
Length of Day
10h 51m
Waning Gibbous, 50% of the Moon is Illuminated
Feb 14
Waning Gibbous
Feb 14
Last Quarter
Feb 21
New
Feb 29
First Quarter
Mar 8
Full

Hourly Weather History & Observations

Time (EST) Temp. Windchill Dew Point Humidity Pressure Visibility Wind Dir Wind Speed Gust Speed Precip Events Conditions
12:53 AM 39.9 °F - 19.0 °F 43% 30.05 in 10.0 mi Calm Calm - N/A   Mostly Cloudy
1:53 AM 42.1 °F 38.4 °F 17.1 °F 37% 30.03 in 10.0 mi SSW 5.8 mph - N/A   Overcast
2:53 AM 41.0 °F 38.0 °F 18.0 °F 40% 30.00 in 10.0 mi South 4.6 mph - N/A   Overcast
3:53 AM 41.0 °F 38.0 °F 18.0 °F 40% 30.01 in 10.0 mi SSW 4.6 mph - N/A   Overcast
4:53 AM 41.0 °F 37.1 °F 19.0 °F 41% 30.01 in 10.0 mi South 5.8 mph - N/A   Overcast
5:53 AM 41.0 °F 36.4 °F 19.9 °F 43% 30.02 in 10.0 mi SSW 6.9 mph - N/A   Overcast
6:53 AM 41.0 °F 34.7 °F 28.0 °F 60% 30.03 in 10.0 mi SW 10.4 mph - N/A   Overcast
7:53 AM 39.9 °F 33.9 °F 30.9 °F 70% 30.04 in 10.0 mi South 9.2 mph 17.3 mph N/A   Overcast
8:53 AM 41.0 °F 34.7 °F 32.0 °F 70% 30.06 in 10.0 mi SSW 10.4 mph - N/A   Overcast
9:53 AM 42.1 °F 35.2 °F 32.0 °F 67% 30.04 in 10.0 mi South 12.7 mph - N/A   Overcast
10:53 AM 44.1 °F 38.6 °F 34.0 °F 68% 30.04 in 10.0 mi SSW 10.4 mph 19.6 mph 0.00 in   Scattered Clouds
11:53 AM 45.0 °F 38.5 °F 33.1 °F 63% 30.03 in 10.0 mi SSW 13.8 mph - N/A   Overcast
12:06 PM 44.6 °F 37.8 °F 33.8 °F 66% 30.04 in 10.0 mi SSW 15.0 mph 19.6 mph 0.00 in   Overcast
12:28 PM 48.2 °F - 35.6 °F 62% 30.02 in 10.0 mi SSW 10.4 mph 20.7 mph 0.00 in   Overcast
12:53 PM 48.2 °F - 33.8 °F 58% 30.01 in 10.0 mi South 16.1 mph 21.9 mph N/A   Overcast
1:53 PM 48.0 °F - 33.1 °F 56% 29.97 in 10.0 mi SSW 10.4 mph 21.9 mph N/A   Overcast
2:53 PM 46.9 °F - 33.1 °F 59% 29.97 in 10.0 mi SSW 11.5 mph - N/A   Overcast
3:53 PM 48.0 °F - 34.0 °F 58% 29.96 in 10.0 mi SW 11.5 mph 19.6 mph N/A   Overcast
4:53 PM 48.0 °F - 36.0 °F 63% 29.96 in 10.0 mi SSW 11.5 mph - N/A   Overcast
5:13 PM 46.4 °F 40.7 °F 35.6 °F 66% 29.99 in 10.0 mi SSW 12.7 mph 19.6 mph N/A   Overcast
5:53 PM 46.9 °F - 36.0 °F 66% 29.98 in 10.0 mi SSW 12.7 mph - N/A   Overcast
6:53 PM 46.0 °F 41.4 °F 36.0 °F 68% 30.00 in 10.0 mi SSW 9.2 mph - N/A   Overcast
7:30 PM 44.6 °F 41.4 °F 35.6 °F 71% 30.03 in 10.0 mi SSW 5.8 mph - N/A   Scattered Clouds
7:53 PM 44.1 °F 39.5 °F 36.0 °F 73% 30.01 in 10.0 mi SW 8.1 mph - N/A   Clear
8:53 PM 42.1 °F 38.4 °F 36.0 °F 79% 30.03 in 10.0 mi SSW 5.8 mph - N/A   Clear
9:53 PM 41.0 °F 38.0 °F 36.0 °F 82% 30.04 in 10.0 mi SSW 4.6 mph - N/A   Clear
10:53 PM 39.0 °F - 36.0 °F 89% 30.05 in 9.0 mi Calm Calm - N/A   Clear
11:53 PM 39.0 °F - 36.0 °F 89% 30.06 in 7.0 mi Calm Calm - N/A   Clear